Location: Errabaliem
(16.8108°N, 80.4255°E)
Time: 06:31:30
(UTC+00:00)

Cosmos 2082 Rocket - Pass Details

Date: 05 August 2024
Orbit: 834 x 852 km, 71.0° (Epoch: 10 September)

Event Time Altitude Azimuth Distance (km) Brightness Sun altitude
Rises 14:40:41 0° 336° (NNW) 3,375 6.1 -21.3°
Reaches altitude 10° 14:43:09 10° 332° (NNW) 2,442 5.3 -21.8°
Maximum altitude 14:48:36 55° 255° (WSW) 1,001 2.8 -23.0°
Enters shadow 14:52:08 22° 186° (S) 1,757 3.6 -23.7°
